Home   Weather   Stuart   Past weeks
Flag for USA

Past Weather in Stuart, Florida, USA — Yesterday and Last 2 Weeks

Now
68 °F

Clear.


Feels Like: 68 °F
Forecast: 77 / 62 °F
Wind: 6 mph from East

Location: Witham Field Airport

Current Time: Apr 21, 2019 at 10:16:49 pm

Latest Report: Apr 21, 2019 at 8:48 pm


Visibility: 7 mi

Pressure: 30.13 "Hg

Humidity: 60%

Dew Point: 54 °F

Location of StuartLocation

Past Weather in Stuart — Graph

°F

Stuart Temperature Yesterday

Maximum temperature yesterday: 81 °F (at 4:50 pm)
Minimum temperature yesterday: 63 °F (at 6:15 am)
Average temperature yesterday: 69 °F

High & Low Weather Summary for the Past Weeks

 TemperatureHumidityPressure
High86 °F (Apr 8, 2:47 pm)94% (Apr 9, 4:55 am)30.21 "Hg (Apr 9, 4:55 am)
Low57 °F (Apr 21, 6:47 am)20% (Apr 15, 2:50 pm)29.74 "Hg (Apr 10, 4:47 pm)
Average75 °F71%30.00 "Hg
* Reported Apr 6 8:50 pm — Apr 21 8:48 pm, Stuart. Weather by CustomWeather, © 2019

Note: Actual official high and low records may vary slightly from our data, if they occured in-between our weather recording intervals... More about our weather records

Advertising

Stuart Weather History for the Previous 24 Hours

Scroll right to see more
 ConditionsComfort  
Time TempWeatherWind HumidityBarometerVisibility
8:48 pm
Sun, Apr 21
68 °FClear.6 mph60%30.13 "Hg7 mi
7:48 pm72 °FClear.6 mph47%30.12 "Hg7 mi
6:48 pm73 °FSunny.7 mph44%30.11 "Hg7 mi
5:50 pm73 °FSunny.9 mph44%30.10 "Hg7 mi
4:50 pm75 °FSunny.9 mph41%30.09 "Hg7 mi
4:25 pm75 °FSunny.9 mph44%30.09 "Hg7 mi
3:50 pm79 °FSunny.9 mph30%30.09 "Hg7 mi
2:48 pm77 °FSunny.9 mph34%30.11 "Hg7 mi
1:50 pm75 °FSunny.10 mph36%30.14 "Hg7 mi
12:50 pm75 °FSunny.9 mph39%30.15 "Hg7 mi
11:50 am73 °FSunny.12 mph41%30.16 "Hg7 mi
10:50 am68 °FSunny.6 mph49%30.16 "Hg7 mi
9:50 am70 °FSunny.7 mph50%30.14 "Hg7 mi
8:47 am68 °FSunny.6 mph49%30.13 "Hg7 mi
7:47 am59 °FSunny.No wind82%30.11 "Hg7 mi
6:47 am57 °FPassing clouds.No wind77%30.10 "Hg7 mi
6:35 am59 °FPassing clouds.No wind72%30.09 "Hg10 mi
6:15 am59 °FPassing clouds.No wind72%30.09 "Hg10 mi
5:55 am61 °FPassing clouds.No wind68%30.09 "Hg10 mi
5:35 am61 °FPassing clouds.No wind68%30.08 "Hg10 mi
5:15 am59 °FClear.No wind68%30.07 "Hg10 mi
4:55 am59 °FClear.3 mph72%30.07 "Hg10 mi
4:35 am61 °FPassing clouds.No wind68%30.07 "Hg10 mi
4:15 am61 °FOvercast.No wind59%30.06 "Hg10 mi
3:55 am61 °FMostly cloudy.No wind63%30.07 "Hg10 mi
3:35 am61 °FOvercast.No wind59%30.07 "Hg10 mi
3:15 am61 °FOvercast.No wind59%30.07 "Hg10 mi
2:55 am61 °FMostly cloudy.No wind55%30.07 "Hg10 mi
2:35 am59 °FPassing clouds.No wind59%30.07 "Hg10 mi
2:15 am61 °FPassing clouds.No wind52%30.07 "Hg10 mi
1:55 am61 °FPassing clouds.No wind52%30.08 "Hg10 mi
1:35 am61 °FPassing clouds.3 mph52%30.09 "Hg10 mi
12:55 am61 °FClear.No wind52%30.09 "Hg10 mi
12:35 am63 °FClear.5 mph45%30.09 "Hg10 mi
12:15 am63 °FClear.6 mph49%30.09 "Hg10 mi
11:55 pm
Sat, Apr 20
63 °FClear.7 mph49%30.09 "Hg10 mi
11:15 pm63 °FClear.6 mph52%30.08 "Hg10 mi
10:35 pm64 °FClear.7 mph46%30.07 "Hg10 mi
10:15 pm64 °FClear.6 mph46%30.06 "Hg10 mi
Weather by CustomWeather, © 2019

See weather overview